Spearfish, SD

4:49 AM MST on February 13, 2016 (GMT -0700)
Black Hills-Ice

Weather History for KSPF - November, 2013

Change the Weather History Date:

Tuesday, November 5, 2013

  Actual Average (KEFC) Record (KEFC)
Temperature  
Mean Temperature 26 °F -  
Max Temperature 32 °F 52 °F - (-1)
Min Temperature 21 °F 25 °F - (-1)
Degree Days  
Heating Degree Days 38    
Moisture  
Dew Point 24 °F    
Average Humidity 87    
Maximum Humidity 100    
Minimum Humidity 68    
Precipitation  
Precipitation 0.63 in - - ()
Sea Level Pressure  
Sea Level Pressure 30.08 in    
Wind  
Wind Speed 6 mph (ESE)    
Max Wind Speed 10 mph    
Max Gust Speed -    
Visibility 7 miles    
Events Snow    
Averages and records for this station are not official NWS values.
T = Trace of Precipitation, MM = Missing Value Source: NWS Daily Summary

Daily Weather History Graph

Daily Weather History Graph

Search for Another Location

Airport or City:

Trip Planner

Search our weather history database for the weather conditions in past years. The results will help you decide how hot, cold, wet, or windy it might be!

Date:

Astronomy

Nov. 05, 2013 Rise Set
Actual Time 7:38 AM CST 5:38 PM CST
Civil Twilight 7:07 AM CST 6:09 PM CST
Nautical Twilight 6:33 AM CST 6:43 PM CST
Astronomical Twilight 5:59 AM CST 7:17 PM CST
Moon 9:59 AM CST (11/5) 7:38 PM CST (11/5)
Length of Visible Light 11h 01m
Length of Day
10h 00m
Waxing Crescent, 7% of the Moon is Illuminated
Nov 5
Waxing Crescent
Nov 9
First Quarter
Nov 17
Full
Nov 25
Last Quarter
Dec 2
New

Hourly Weather History & Observations

Time (CST) Temp. Windchill Dew Point Humidity Pressure Visibility Wind Dir Wind Speed Gust Speed Precip Events Conditions
12:15 AM 28.4 °F 22.2 °F 26.6 °F 93% 30.08 in 4.0 mi East 5.8 mph - N/A   Overcast
12:35 AM 28.4 °F 21.2 °F 26.6 °F 93% 30.08 in 4.0 mi East 6.9 mph - N/A   Mostly Cloudy
12:55 AM 28.4 °F 21.2 °F 26.6 °F 93% 30.07 in 5.0 mi ENE 6.9 mph - N/A   Mostly Cloudy
1:15 AM 28.4 °F 20.4 °F 26.6 °F 93% 30.07 in 10.0 mi ENE 8.1 mph - N/A   Scattered Clouds
1:35 AM 28.4 °F 20.4 °F 26.6 °F 93% 30.07 in 10.0 mi ENE 8.1 mph - N/A   Partly Cloudy
1:55 AM 28.4 °F 20.4 °F 26.6 °F 93% 30.07 in 10.0 mi East 8.1 mph - N/A   Mostly Cloudy
2:15 AM 28.4 °F 21.2 °F 26.6 °F 93% 30.06 in 10.0 mi East 6.9 mph - N/A   Overcast
2:35 AM 28.4 °F 23.3 °F 26.6 °F 93% 30.06 in 10.0 mi ENE 4.6 mph - N/A   Overcast
2:55 AM 28.4 °F 21.2 °F 26.6 °F 93% 30.06 in 5.0 mi East 6.9 mph - N/A   Mostly Cloudy
3:15 AM 28.4 °F 22.2 °F 26.6 °F 93% 30.05 in 1.8 mi East 5.8 mph - 0.02 in Snow Light Snow
3:35 AM 28.4 °F 20.4 °F 26.6 °F 93% 30.05 in 2.0 mi East 8.1 mph - 0.07 in Snow Light Snow
3:55 AM 28.4 °F 19.7 °F 26.6 °F 93% 30.04 in 2.5 mi ESE 9.2 mph - 0.10 in Snow Light Snow
4:15 AM 28.4 °F 19.7 °F 26.6 °F 93% 30.05 in 1.2 mi ESE 9.2 mph - 0.05 in Snow Light Snow
4:35 AM 26.6 °F 16.8 °F 26.6 °F 100% 30.06 in 2.0 mi ESE 10.4 mph - 0.08 in Snow Light Snow
4:55 AM 26.6 °F 16.8 °F 26.6 °F 100% 30.06 in 1.8 mi East 10.4 mph - 0.10 in Snow Light Snow
5:15 AM 26.6 °F 18.2 °F 26.6 °F 100% 30.07 in 2.5 mi ESE 8.1 mph - 0.01 in Snow Light Snow
5:35 AM 26.6 °F 18.2 °F 26.6 °F 100% 30.07 in 2.5 mi East 8.1 mph - 0.03 in Snow Light Snow
5:55 AM 26.6 °F 17.5 °F 26.6 °F 100% 30.07 in 2.0 mi East 9.2 mph - 0.06 in Snow Light Snow
6:15 AM 26.6 °F 18.2 °F 26.6 °F 100% 30.07 in 2.5 mi East 8.1 mph - 0.02 in Snow Light Snow
6:35 AM 26.6 °F 18.2 °F 26.6 °F 100% 30.08 in 4.0 mi NE 8.1 mph - 0.03 in Snow Light Snow
6:55 AM 26.6 °F 16.8 °F 24.8 °F 93% 30.09 in 3.0 mi ENE 10.4 mph - 0.05 in Snow Light Snow
7:15 AM 26.6 °F 18.2 °F 24.8 °F 93% 30.10 in 0.8 mi NE 8.1 mph - 0.07 in Snow Light Snow
7:35 AM 24.8 °F 16.1 °F 24.8 °F 100% 30.10 in 0.8 mi NE 8.1 mph - 0.18 in Snow Light Snow
7:55 AM 26.6 °F 18.2 °F 24.8 °F 93% 30.11 in 0.8 mi NE 8.1 mph - 0.24 in Snow Light Snow
8:15 AM 26.6 °F 18.2 °F 24.8 °F 93% 30.12 in 1.0 mi NE 8.1 mph - 0.02 in Snow Light Snow
8:35 AM 26.6 °F 18.2 °F 24.8 °F 93% 30.12 in 1.0 mi NE 8.1 mph - 0.05 in Snow Light Snow
8:55 AM 26.6 °F 19.1 °F 24.8 °F 93% 30.12 in 2.0 mi NE 6.9 mph - 0.07 in Snow Light Snow
9:15 AM 26.6 °F 20.0 °F 26.6 °F 100% 30.12 in 5.0 mi ENE 5.8 mph - N/A Snow Light Snow
9:35 AM 28.4 °F 22.2 °F 26.6 °F 93% 30.12 in 3.0 mi East 5.8 mph - N/A Snow Light Snow
9:55 AM 28.4 °F 24.6 °F 26.6 °F 93% 30.12 in 3.0 mi East 3.5 mph - 0.01 in Snow Light Snow
10:15 AM 28.4 °F 21.2 °F 24.8 °F 86% 30.12 in 4.0 mi ESE 6.9 mph - N/A Snow Light Snow
10:35 AM 28.4 °F 20.4 °F 24.8 °F 86% 30.11 in 10.0 mi ESE 8.1 mph - N/A   Clear
10:55 AM 28.4 °F 19.7 °F 24.8 °F 86% 30.11 in 10.0 mi ESE 9.2 mph - N/A   Clear
11:15 AM 28.4 °F 19.7 °F 24.8 °F 86% 30.10 in 10.0 mi ESE 9.2 mph - N/A   Clear
11:35 AM 30.2 °F 25.4 °F 24.8 °F 80% 30.10 in 10.0 mi NE 4.6 mph - N/A   Partly Cloudy
11:55 AM 28.4 °F 20.4 °F 24.8 °F 86% 30.10 in 10.0 mi NNE 8.1 mph - N/A   Mostly Cloudy
12:15 PM 28.4 °F 22.2 °F 24.8 °F 86% 30.10 in 10.0 mi NE 5.8 mph - N/A   Overcast
12:35 PM 30.2 °F - 24.8 °F 80% 30.09 in 10.0 mi Calm Calm - N/A   Overcast
12:55 PM 30.2 °F - 24.8 °F 80% 30.09 in 10.0 mi Calm Calm - N/A   Overcast
1:15 PM 32.0 °F 28.7 °F 26.6 °F 80% 30.08 in 10.0 mi WNW 3.5 mph - N/A   Overcast
1:35 PM 30.2 °F 23.4 °F 26.6 °F 86% 30.08 in 10.0 mi NW 6.9 mph - N/A   Overcast
1:55 PM 30.2 °F 24.3 °F 24.8 °F 80% 30.08 in 10.0 mi West 5.8 mph - N/A   Overcast
2:15 PM 28.4 °F - 24.8 °F 86% 30.08 in 10.0 mi Calm Calm - N/A   Overcast
2:35 PM 30.2 °F 25.4 °F 24.8 °F 80% 30.07 in 10.0 mi WSW 4.6 mph - N/A   Mostly Cloudy
2:55 PM 32.0 °F - 24.8 °F 75% 30.07 in 10.0 mi Calm Calm - N/A   Clear
3:15 PM 32.0 °F - 24.8 °F 75% 30.07 in 10.0 mi Calm Calm - N/A   Clear
3:35 PM 32.0 °F - 24.8 °F 75% 30.07 in 10.0 mi Calm Calm - N/A   Clear
3:55 PM 32.0 °F - 24.8 °F 75% 30.07 in 10.0 mi Calm Calm - N/A   Clear
4:15 PM 32.0 °F 27.5 °F 24.8 °F 75% 30.07 in 10.0 mi SSE 4.6 mph - N/A   Clear
4:35 PM 28.4 °F 23.3 °F 24.8 °F 86% 30.07 in 10.0 mi South 4.6 mph - N/A   Clear
4:55 PM 26.6 °F 21.2 °F 23.0 °F 86% 30.07 in 10.0 mi SSW 4.6 mph - N/A   Clear
5:15 PM 24.8 °F 17.9 °F 23.0 °F 93% 30.07 in 10.0 mi SSW 5.8 mph - N/A   Clear
5:35 PM 24.8 °F 16.9 °F 23.0 °F 93% 30.07 in 10.0 mi SSW 6.9 mph - N/A   Clear
5:55 PM 24.8 °F 16.1 °F 23.0 °F 93% 30.07 in 10.0 mi SSW 8.1 mph - N/A   Clear
6:15 PM 24.8 °F 16.1 °F 23.0 °F 93% 30.07 in 10.0 mi SSW 8.1 mph - N/A   Clear
6:35 PM 24.8 °F 16.1 °F 21.2 °F 86% 30.07 in 10.0 mi South 8.1 mph - N/A   Clear
6:55 PM 21.2 °F - 19.4 °F 93% 30.07 in 10.0 mi Calm Calm - N/A   Clear
7:15 PM 23.0 °F 18.4 °F 19.4 °F 86% 30.07 in 10.0 mi South 3.5 mph - N/A   Clear
7:35 PM 23.0 °F - 17.6 °F 80% 30.07 in 10.0 mi Calm Calm - N/A   Clear
7:55 PM 23.0 °F 18.4 °F 19.4 °F 86% 30.07 in 10.0 mi SSW 3.5 mph - N/A   Clear
8:15 PM 23.0 °F 18.4 °F 17.6 °F 80% 30.06 in 10.0 mi South 3.5 mph - N/A   Clear
8:35 PM 24.8 °F 16.1 °F 17.6 °F 74% 30.06 in 10.0 mi South 8.1 mph - N/A   Clear
8:55 PM 23.0 °F 17.0 °F 17.6 °F 80% 30.07 in 10.0 mi South 4.6 mph - N/A   Clear
9:15 PM 24.8 °F 14.6 °F 17.6 °F 74% 30.07 in 10.0 mi SSW 10.4 mph - N/A   Clear
9:35 PM 24.8 °F 16.1 °F 17.6 °F 74% 30.06 in 10.0 mi SSW 8.1 mph - N/A   Clear
9:55 PM 23.0 °F - 15.8 °F 74% 30.06 in 10.0 mi Calm Calm - N/A   Clear
10:15 PM 23.0 °F 14.7 °F 15.8 °F 74% 30.06 in 10.0 mi South 6.9 mph - N/A   Clear
10:35 PM 23.0 °F - 15.8 °F 74% 30.06 in 10.0 mi Calm Calm - N/A   Clear
10:55 PM 21.2 °F 14.9 °F 15.8 °F 80% 30.06 in 10.0 mi ESE 4.6 mph - N/A   Clear
11:35 PM 23.0 °F - 14.0 °F 68% 30.04 in 10.0 mi Calm Calm - N/A   Clear
11:55 PM 23.0 °F 18.4 °F 14.0 °F 68% 30.04 in 10.0 mi NE 3.5 mph - N/A   Clear